• In Netherlands
  • List of Countries
  • For 7 days
  • Water Temperature
  • Satellite Maps
  • Weather Map
  • Weather Widgets
  • user-avatar
    Login

    Hourly Weather Innsbruck

    Today, 24 January, Tuesday

    Time Temperature Precipitation Wind Pressure Humidity
    00:00 -26°C° 0 mm 0 mps 581 mmHg 96%
    01:00 -26°C° 0 mm 0 mps 581 mmHg 92%
    02:00 -26°C° 0 mm 0 mps 581 mmHg 92%
    03:00 -27°C° 0 mm 0 mps 581 mmHg 91%
    04:00 -27°C° 0 mm 0 mps 581 mmHg 91%
    05:00 -26°C° 0 mm 0 mps 581 mmHg 92%
    06:00 -26°C° 0 mm 0 mps 582 mmHg 92%
    07:00 -27°C° 0 mm 1 mps 582 mmHg 91%
    08:00 -20°C° 0 mm 1 mps 586 mmHg 91%
    09:00 -15°C° 0 mm 0 mps 589 mmHg 90%
    10:00 -10°C° 0 mm 0 mps 592 mmHg 89%
    11:00 -9°C° 0 mm 0 mps 592 mmHg 90%
    12:00 -8°C° 0 mm 1 mps 593 mmHg 91%
    13:00 -7°C° 0 mm 1 mps 593 mmHg 92%
    14:00 -7°C° 0 mm 1 mps 593 mmHg 94%
    15:00 -8°C° 0 mm 1 mps 593 mmHg 95%
    16:00 -9°C° 0 mm 1 mps 592 mmHg 96%
    17:00 -12°C° 0 mm 1 mps 591 mmHg 97%
    18:00 -15°C° 0 mm 1 mps 589 mmHg 97%
    19:00 -18°C° 0 mm 1 mps 588 mmHg 98%
    20:00 -20°C° 0 mm 1 mps 587 mmHg 98%
    21:00 -22°C° 0 mm 1 mps 586 mmHg 97%
    22:00 -23°C° 0 mm 1 mps 585 mmHg 97%
    23:00 -24°C° 0 mm 1 mps 585 mmHg 96%

    Tomorrow, 25 January, Wednesday

    Time Temperature Precipitation Wind Pressure Humidity
    00:00 -25°C° 0 mm 1 mps 584 mmHg 96%
    01:00 -25°C° 0 mm 1 mps 584 mmHg 95%
    02:00 -25°C° 0 mm 1 mps 584 mmHg 92%
    03:00 -24°C° 0 mm 1 mps 584 mmHg 89%
    04:00 -24°C° 0 mm 1 mps 584 mmHg 86%
    05:00 -23°C° 0 mm 1 mps 585 mmHg 85%
    06:00 -21°C° 0 mm 1 mps 586 mmHg 83%
    07:00 -20°C° 0 mm 1 mps 587 mmHg 82%
    08:00 -16°C° 0 mm 1 mps 590 mmHg 84%
    09:00 -12°C° 0 mm 1 mps 592 mmHg 87%
    10:00 -9°C° 0 mm 1 mps 594 mmHg 89%
    11:00 -7°C° 0 mm 1 mps 595 mmHg 90%
    12:00 -6°C° 0 mm 1 mps 595 mmHg 91%
    13:00 -3°C° 0 mm 1 mps 596 mmHg 93%
    14:00 -4°C° 0 mm 1 mps 595 mmHg 93%
    15:00 -6°C° 0 mm 1 mps 595 mmHg 94%
    16:00 -6°C° 0 mm 1 mps 594 mmHg 94%
    17:00 -9°C° 0 mm 1 mps 593 mmHg 94%
    18:00 -12°C° 0 mm 1 mps 591 mmHg 94%
    19:00 -15°C° 0 mm 1 mps 590 mmHg 95%
    20:00 -15°C° 0 mm 1 mps 590 mmHg 93%
    21:00 -16°C° 0 mm 1 mps 590 mmHg 92%
    22:00 -18°C° 0 mm 2 mps 590 mmHg 91%
    23:00 -18°C° 0 mm 2 mps 590 mmHg 90%

    Day after tomorrow, 26 January, Thursday

    Time Temperature Precipitation Wind Pressure Humidity
    00:00 -17°C° 0 mm 2 mps 590 mmHg 89%
    01:00 -17°C° 0 mm 2 mps 591 mmHg 88%
    02:00 -17°C° 0 mm 2 mps 591 mmHg 88%
    03:00 -16°C° 0 mm 2 mps 591 mmHg 87%
    04:00 -16°C° 0 mm 2 mps 591 mmHg 87%
    05:00 -16°C° 0 mm 2 mps 591 mmHg 86%
    06:00 -16°C° 0 mm 2 mps 591 mmHg 86%
    07:00 -16°C° 0 mm 2 mps 591 mmHg 86%
    08:00 -14°C° 0 mm 2 mps 592 mmHg 87%
    09:00 -12°C° 0 mm 2 mps 593 mmHg 88%
    10:00 -9°C° 0 mm 2 mps 594 mmHg 89%
    11:00 -7°C° 0 mm 2 mps 594 mmHg 90%
    12:00 -4°C° 0 mm 1 mps 595 mmHg 92%
    13:00 -2°C° 0 mm 1 mps 595 mmHg 93%
    14:00 -3°C° 0 mm 1 mps 594 mmHg 94%
    15:00 -4°C° 0 mm 1 mps 594 mmHg 94%
    16:00 -6°C° 0 mm 1 mps 593 mmHg 94%
    17:00 -9°C° 0 mm 2 mps 593 mmHg 94%
    18:00 -10°C° 0 mm 2 mps 593 mmHg 93%
    19:00 -12°C° 0 mm 2 mps 592 mmHg 93%
    20:00 -13°C° 0 mm 2 mps 592 mmHg 93%
    21:00 -13°C° 0 mm 2 mps 592 mmHg 93%
    22:00 -14°C° 0 mm 3 mps 592 mmHg 92%
    23:00 -14°C° 0 mm 3 mps 592 mmHg 92%

    27 January, Friday

    Time Temperature Precipitation Wind Pressure Humidity
    00:00 -15°C° 0 mm 3 mps 592 mmHg 92%
    01:00 -15°C° 0 mm 3 mps 592 mmHg 92%
    02:00 -15°C° 0 mm 3 mps 592 mmHg 91%
    03:00 -15°C° 0 mm 3 mps 592 mmHg 91%
    04:00 -15°C° 0 mm 3 mps 592 mmHg 91%
    05:00 -15°C° 0 mm 3 mps 592 mmHg 91%
    06:00 -14°C° 0 mm 2 mps 592 mmHg 91%
    07:00 -14°C° 0 mm 2 mps 592 mmHg 91%
    08:00 -13°C° 0 mm 2 mps 593 mmHg 91%
    09:00 -10°C° 0 mm 2 mps 593 mmHg 91%
    10:00 -9°C° 0 mm 2 mps 594 mmHg 91%
    11:00 -7°C° 0 mm 2 mps 595 mmHg 92%
    12:00 -6°C° 0 mm 2 mps 595 mmHg 93%
    13:00 -5°C° 0 mm 2 mps 595 mmHg 93%
    14:00 -5°C° 0 mm 2 mps 595 mmHg 94%
    15:00 -6°C° 0 mm 2 mps 595 mmHg 94%
    16:00 -6°C° 0 mm 2 mps 595 mmHg 94%
    17:00 -7°C° 0 mm 2 mps 594 mmHg 94%
    18:00 -9°C° 0 mm 2 mps 594 mmHg 94%
    19:00 -10°C° 0 mm 2 mps 593 mmHg 93%
    20:00 -10°C° 0 mm 2 mps 593 mmHg 93%
    21:00 -10°C° 0 mm 2 mps 593 mmHg 93%
    22:00 -12°C° 0 mm 2 mps 593 mmHg 93%
    23:00 -12°C° 0 mm 2 mps 593 mmHg 93%

    28 January, Saturday

    Time Temperature Precipitation Wind Pressure Humidity
    00:00 -12°C° 0 mm 2 mps 593 mmHg 93%
    01:00 -12°C° 0 mm 2 mps 593 mmHg 93%
    02:00 -12°C° 0 mm 2 mps 593 mmHg 94%
    03:00 -12°C° 0 mm 2 mps 593 mmHg 94%
    04:00 -12°C° 0 mm 2 mps 592 mmHg 94%
    05:00 -12°C° 0 mm 2 mps 592 mmHg 94%
    06:00 -12°C° 0 mm 2 mps 593 mmHg 95%
    07:00 -12°C° 0 mm 2 mps 593 mmHg 95%
    08:00 -10°C° 0 mm 2 mps 593 mmHg 95%
    09:00 -8°C° 0 mm 2 mps 594 mmHg 94%
    10:00 -7°C° 0 mm 2 mps 595 mmHg 94%
    11:00 -6°C° 0 mm 2 mps 596 mmHg 94%
    12:00 -3°C° 0 mm 1 mps 596 mmHg 95%
    13:00 -1°C° 0 mm 1 mps 596 mmHg 95%
    14:00 -2°C° 0 mm 1 mps 596 mmHg 95%
    15:00 -2°C° 0 mm 1 mps 596 mmHg 95%
    16:00 -3°C° 0 mm 1 mps 595 mmHg 95%
    17:00 -7°C° 0 mm 1 mps 594 mmHg 96%
    18:00 -10°C° 0 mm 1 mps 592 mmHg 96%
    19:00 -14°C° 0 mm 1 mps 590 mmHg 97%
    20:00 -13°C° 0 mm 1 mps 591 mmHg 96%
    21:00 -12°C° 0 mm 1 mps 592 mmHg 95%
    22:00 -11°C° 0 mm 1 mps 592 mmHg 95%
    23:00 -11°C° 0 mm 1 mps 592 mmHg 94%

    29 January, Sunday

    Time Temperature Precipitation Wind Pressure Humidity
    00:00 -12°C° 0 mm 1 mps 592 mmHg 94%
    01:00 -12°C° 0 mm 1 mps 593 mmHg 94%
    02:00 -12°C° 0 mm 1 mps 592 mmHg 93%
    03:00 -13°C° 0 mm 1 mps 592 mmHg 93%
    04:00 -13°C° 0 mm 1 mps 592 mmHg 92%
    05:00 -13°C° 0 mm 1 mps 592 mmHg 92%
    06:00 -13°C° 0 mm 1 mps 593 mmHg 93%
    07:00 -13°C° 0 mm 1 mps 593 mmHg 93%
    08:00 -10°C° 0 mm 1 mps 594 mmHg 93%
    09:00 -8°C° 0 mm 1 mps 596 mmHg 93%
    10:00 -4°C° 0 mm 1 mps 597 mmHg 93%
    11:00 -3°C° 0 mm 1 mps 597 mmHg 94%
    12:00 -3°C° 0 mm 0 mps 597 mmHg 94%
    13:00 -2°C° 0 mm 0 mps 597 mmHg 95%
    14:00 -3°C° 0 mm 0 mps 597 mmHg 95%
    15:00 -4°C° 0 mm 0 mps 596 mmHg 95%
    16:00 -4°C° 0 mm 0 mps 596 mmHg 95%
    17:00 -8°C° 0 mm 0 mps 594 mmHg 96%
    18:00 -11°C° 0 mm 0 mps 592 mmHg 96%
    19:00 -15°C° 0 mm 0 mps 590 mmHg 97%
    20:00 -13°C° 0 mm 1 mps 591 mmHg 96%
    21:00 -12°C° 0 mm 1 mps 592 mmHg 95%
    22:00 -10°C° 0 mm 1 mps 593 mmHg 94%
    23:00 -10°C° 0 mm 1 mps 593 mmHg 95%
    Show more